TIME,DELAY(SENSOR),PRES,OXYGEN,RAWTEMP,T(OPTODE),TCPHASE,FLUOR,BETA(BETA700),BETA(BETA412),BETA(BETA440),CDOM,C(CSC),ED(ED412.40),ED(ED444.00),ED(ED489.70),ED(ED554.30),LU(LU411.80),LU(LU443.40),LU(LU489.60),LU(LU554.10),COMP,TILTX,TILTY,CHECK
1365566254,5807,842.7999877929688000,42.8831481933593750,655.7540893554688000,4.7676558494567870,54.5214309692382800,53,100,84,79,79,14914,2147755008,2147425142,2148008082,2147874806,2147637147,2147058660,2148257545,2147197595,103,4,13,14042
1365569850,5812,897.5399780273438000,45.4259414672851560,663.6467895507812000,4.5078392028808590,54.2352294921875000,53,100,85,79,79,14915,2147757513,2147422454,2148009691,2147873042,2147638701,2147056667,2148262189,2147198555,3438,4,13,17296
1365573450,5806,913.9000244140625000,45.4693183898925800,665.0919189453125000,4.4601941108703610,54.2513008117675800,54,100,88,78,81,14918,2147755072,2147425947,2148008365,2147873069,2147638683,2147062509,2148260242,2147196562,3267,4,13,8085
1365577050,5811,941.1300048828125000,46.5390396118164060,668.4525146484375000,4.3493061065673830,54.1349906921386700,52,99,86,78,80,14914,2147755062,2147421732,2148008896,2147872557,2147638326,2147057874,2148263433,2147194422,464,4,13,36614
1365580650,5807,943.8900146484375000,45.8875808715820300,667.5617065429688000,4.3787097930908200,54.2177314758300800,52,109,83,78,80,14913,2147754825,2147424301,2148008000,2147873782,2147640338,2147056969,2148259940,2147198720,645,4,13,47986
1365584250,5806,950.8800048828125000,46.1297683715820300,668.2078857421875000,4.3573760986328125,54.1915206909179700,52,100,87,79,81,14913,2147758756,2147423579,2148011154,2147870912,2147642093,2147059437,2148264923,2147194550,223,4,13,43261
1365587850,5808,970.9199829101562000,47.3891105651855500,671.4943237304688000,4.2488207817077640,54.0559501647949200,53,98,86,79,79,14915,2147760000,2147422089,2148013723,2147873929,2147637888,2147062902,2148260123,2147196150,310,4,13,55197
1365591450,5811,969.6300048828125000,47.6535491943359400,672.3206787109375000,4.2215042114257810,54.0253105163574200,53,101,84,80,81,14914,2147753910,2147423360,2148010304,2147873526,2147640941,2147057746,2148265078,2147196553,3475,4,13,62370
1365595050,5807,979.1099853515625000,47.8140106201171900,672.1721191406250000,4.2264189720153810,54.0009803771972660,53,97,83,77,80,14913,2147757229,2147424402,2148011584,2147873819,2147639716,2147054107,2148260141,2147192292,3263,4,13,1974
1365598650,5806,976.7199707031250000,47.5563507080078100,672.0612792968750000,4.2300820350646970,54.0379219055175800,53,98,87,78,80,14915,2147755949,2147421101,2148010587,2147874486,2147642916,2147056539,2148259712,2147196553,3471,4,13,45204
1365602250,5810,976.7199707031250000,47.0410003662109400,671.3032836914062000,4.2551350593566895,54.0970802307128900,52,97,86,79,80,14913,2147757037,2147424109,2148013440,2147874596,2147640941,2147055058,2148259026,2147197650,205,4,13,1783
1365605850,5812,971.8200073242188000,47.3157081604003900,672.1456909179688000,4.2272911071777340,54.0717811584472660,52,99,90,80,80,14910,2147754788,2147423241,2148007926,2147871872,2147646765,2147057545,2148259876,2147198089,386,4,13,20257
1365609450,5809,982.0100097656250000,47.6811599731445300,672.1018066406250000,4.2287430763244630,54.0198402404785160,52,103,88,78,80,14910,2147757577,2147422043,2148011702,2147872329,2147638793,2147054464,2148264082,2147195072,310,4,13,56545
1365613050,5810,975.0399780273438000,47.2286682128906250,671.8546142578125000,4.2369160652160645,54.0789985656738300,53,100,86,80,80,14910,2147758006,2147425828,2148010011,2147874715,2147640274,2147055433,2148263369,2147195392,542,4,13,52454
1365616650,5809,984.0200195312500000,47.4262504577636700,672.0421142578125000,4.2307147979736330,54.0511512756347660,53,99,86,79,79,14911,2147761289,2147422043,2148008018,2147874697,2147640073,2147061568,2148261732,2147193408,139,4,13,601
1365620250,5807,977.5000000000000000,47.2354393005371100,672.2595825195312000,4.2235240936279300,54.0851707458496100,52,100,83,79,81,14911,2147754294,2147423186,2148009508,2147876507,2147640100,2147058898,2148264640,2147197961,189,4,13,10240
1365623850,5810,979.1699829101562000,46.9935493469238300,672.5496826171875000,4.2139358520507810,54.1186790466308600,53,101,87,78,80,14908,2147755648,2147425362,2148007990,2147873508,2147639488,2147052379,2148261458,2147198262,356,4,13,5859
1365627450,5810,986.6500244140625000,47.4178581237793000,672.2999267578125000,4.2221951484680180,54.0624008178710940,52,99,82,78,81,14871,2147755218,2147424164,2148012854,2147871040,2147641490,2147055588,2148259273,2147196754,443,4,13,58187
1365631050,5809,988.3099975585938000,47.1263885498046900,671.3057250976562000,4.2550539970397950,54.0879516601562500,52,100,86,78,80,14871,2147757942,2147421065,2148011218,2147871094,2147639862,2147056914,2148261787,2147196790,3131,4,13,52608
1365634650,5809,987.8200073242188000,46.8369712829589840,670.9671020507812000,4.2662448883056640,54.1238899230957000,53,100,87,80,82,14868,2147758290,2147424374,2148011035,2147873024,2147640393,2147058706,2148258267,2147198381,3380,4,13,53273
1365638250,5807,988.2600097656250000,46.9099693298339840,671.0883178710938000,4.2622408866882320,54.1187400817871100,53,98,87,80,80,14866,2147756278,2147423908,2148009316,2147871451,2147642294,2147059108,2148268489,2147194029,3394,4,13,28003
1365641850,5807,987.7700195312500000,46.7061691284179700,670.8635864257812000,4.2696628570556640,54.1423187255859400,52,98,84,79,81,14863,2147757632,2147422546,2148010788,2147873782,2147639954,2147054710,2148262509,2147195648,3435,4,13,10747
1365645450,5807,984.2500000000000000,46.8216209411621100,671.2922973632812000,4.2554988861083980,54.1329307556152340,53,99,85,79,79,14867,2147756827,2147420736,2148009938,2147870774,2147642578,2147052059,2148259318,2147195282,3353,4,13,36975
1365649050,5807,982.6400146484375000,46.5234489440918000,672.0571289062500000,4.2302207946777340,54.1812705993652340,51,98,83,79,80,14865,2147757248,2147422061,2148008219,2147874194,2147639798,2147054537,2148263606,2147190573,126,4,13,52549
1365652650,5810,982.9600219726562000,46.8035392761230500,672.2391967773438000,4.2242012023925780,54.1428489685058600,52,98,88,80,80,14867,2147756123,2147422646,2148010048,2147874331,2147642834,2147057600,2148259172,2147193453,62,4,13,58210
1365656250,5808,980.9799804687500000,45.8687591552734400,672.6431274414062000,4.2108459472656250,54.2847404479980500,52,97,85,77,81,14867,2147761069,2147422637,2148009846,2147875291,2147642038,2147055350,2148261467,2147196854,43,4,13,61716
1365659850,5809,984.2600097656250000,47.3073806762695300,672.2457275390625000,4.2239837646484375,54.0764198303222660,52,100,88,80,80,14864,2147759689,2147420809,2148009307,2147875739,2147643666,2147057819,2148259529,2147198189,99,4,13,51424
1365663450,5807,984.0900268554688000,46.6445007324218750,672.0164794921875000,4.2315621376037600,54.1621093750000000,52,99,81,79,80,14834,2147758857,2147423250,2148012050,2147872329,2147641929,2147053028,2148261888,2147199990,263,4,13,21671
1365667050,5807,989.0999755859375000,46.8797988891601560,671.8513183593750000,4.2370238304138180,54.1324691772460940,53,98,87,79,81,14833,2147755657,2147423058,2148008960,2147873179,2147640594,2147054272,2148259849,2147195410,268,4,13,34401
1365670650,5804,984.7199707031250000,46.7986793518066400,672.4194946289062000,4.2182388305664060,54.1451606750488300,53,99,88,80,80,14830,2147754697,2147423369,2148009526,2147875081,2147641005,2147056557,2148259245,2147195254,18,4,13,32297
1365674250,5808,976.2399902343750000,47.4604682922363300,673.7890014648438000,4.1729512214660645,54.0754890441894500,53,101,85,78,80,14831,2147757147,2147425810,2148011081,2147871972,2147640740,2147055954,2148264996,2147194651,3537,4,13,2121
1365677850,5810,977.2199707031250000,47.9165000915527340,673.6635131835938000,4.1771011352539060,54.0032501220703100,52,99,88,80,81,14834,2147757312,2147424054,2148008393,2147875675,2147641554,2147053595,2148263104,2147196059,130,4,13,60496
1365681450,5808,983.9500122070312000,47.8321800231933600,673.8690185546875000,4.1703028678894040,54.0188789367675800,53,97,88,79,80,14830,2147756013,2147426898,2148007094,2147876342,2147641846,2147055917,2148263881,2147198564,3454,4,13,2166
1365685050,5808,981.8200073242188000,47.4672203063964840,673.5015869140625000,4.1824569702148440,54.0692710876464840,52,99,89,78,81,14829,2147753737,2147424923,2148008886,2147875419,2147640182,2147059812,2148263506,2147196224,14,4,13,34034
1365688650,5810,984.4199829101562000,47.0760307312011700,672.8234863281250000,4.2048821449279785,54.1117095947265600,53,101,84,79,79,14825,2147752731,2147428873,2148008512,2147871908,2147638912,2147052909,2148265691,2147197668,340,4,13,1844
1365692250,5808,991.3099975585938000,46.6604614257812500,672.0051269531250000,4.2319388389587400,54.1626091003418000,53,116,86,77,81,14829,2147755940,2147427776,2148009581,2147866907,2147638838,2147056960,2148259044,2147198802,3471,4,13,64597
1365695850,5808,987.2999877929688000,46.6634597778320300,671.9688720703125000,4.2331371307373050,54.1612205505371100,52,98,87,80,80,14827,2147756525,2147422564,2148010697,2147873152,2147638866,2147056859,2148260534,2147197878,3011,4,13,60785
1365699450,5806,991.5200195312500000,46.7358283996582000,671.9976806640625000,4.2321820259094240,54.1503791809082000,52,96,85,78,80,14829,2147756653,2147424603,2148006902,2147875684,2147643053,2147047497,2148261083,2147194084,3152,4,13,644
1365703050,5809,992.2100219726562000,47.0541191101074200,671.9771118164062000,4.2328639030456540,54.1086692810058600,53,98,87,79,80,14826,2147756854,2147422418,2148012169,2147874194,2147642761,2147053778,2148258176,2147195584,2825,4,13,65252
1365706650,5808,995.1900024414062000,46.9937591552734400,671.3872070312500000,4.2523608207702640,54.1107597351074200,53,98,86,79,80,14823,2147757942,2147426203,2148010706,2147874898,2147641206,2147056676,2148258880,2147198445,1218,4,13,24443
1365710250,5806,985.0599975585938000,46.7920188903808600,672.3093872070312000,4.2218761444091800,54.1485595703125000,52,98,88,79,81,14828,2147756763,2147424521,2148011419,2147874459,2147638765,2147057929,2148259044,2147198381,2748,4,13,10453
1365711056,5808,991.6599731445312000,47.0739097595214840,672.5637207031250000,4.2134718894958500,54.1097602844238300,52,100,87,78,81,14903,2147756617,2147424905,2148008886,2147874002,2147641024,2147053540,2148257837,2147198153,3371,4,13,41660
